Location: Moscow
(55.7500°N, 37.5830°E)
Time: 02:15:04
(UTC+03:00)

Tiros 1 - Pass Details

Date: 06 December 2021
Orbit: 630 x 663 km, 48.4° (Epoch: 20 January)

Event Time Altitude Azimuth Distance (km) Brightness Sun altitude
Rises 19:20:41 0° 230° (SW) 2,920 11.3 -26.8°
Reaches altitude 10° 19:23:16 10° 218° (SW) 2,018 10.1 -27.2°
Enters shadow 19:25:33 22° 193° (SSW) 1,406 9.0 -27.5°
